Погода в Мустафине

Россия / Оренбургская область     52°50′09″N   54°46′45″E
темп.,
°C
ветер,
м/с
пор.,
м/с
влажн.,
%
обл.,
%
осадки,
мм/ч
давл.,
гПа
погр.,
м
26 сентября, вс
вс2623:00+10в1273100 0.0 100975
02:00+11с1168100 0.0 100810
05:00+9зсз1175100 0.0 100810
08:00+9з4675100 0.0 1008154
11:00+12сз3464100 0.0 1008462
14:00+15з3354100 0.0 10071251
17:00+15з3350100 0.0 10071295
20:00+13ю1156100 0.0 100711
27 сентября, пн
пн2723:00+12вюв2362100 0.0 100677
02:00+10вюв2272100 0.0 100530
05:00+8в487872 0.0 1004173
08:00+8в6126178 0.0 1005505
11:00+10в894114 0.0 1005859
14:00+13в7835100 0.0 10061435
17:00+12всв8837100 0.0 10071645
20:00+6всв81055100 0.0 1010863
28 сентября, вт
вт2823:00+4всв796775 0.0 1011818
02:00+4св71074100 0.0 1012741
05:00+3св71085100 0.1 1014637
08:00+3св71180100 0.1 1015730
11:00+6всв795498 0.1 10161261
14:00+8всв7848100 0.0 10181584
17:00+9всв7944100 0.0 10191784
20:00+6всв595596 0.0 1021441
29 сентября, ср
ср2923:00+6всв585998 0.1 1023715
02:00+2св3575100 0.0 1024101
05:00+1ссв3775100 0.0 1024175
08:000ссв378116 0.0 1026212
11:00+5св56515 0.0 1026904
14:00+8всв553863 0.0 10261627
17:00+9св553576 0.0 10261901
20:00+5ссв354588 0.0 102770
30 сентября, чт
чт3023:00+4св375585 0.0 1028176
02:00+2св11705 0.0 102911
05:00+1ссв22745 0.0 102911
08:00+1ссв22735 0.0 103031
11:00+6ссв44495 0.0 1030690
14:00+9ссв33375 0.0 10291619
17:00+10с343454 0.0 10281839
20:00+6ссз33475 0.0 102933